GFSMA_sfc_thetae_045.txt.gz
Theta_e
332 331 329 330 330 334 334 332 333 335 335 336 337 337 338 337 334 333 338 348 346 345 343 341 342 342 342 344 346 346 347 347 347 347 346 344 341 339 341 343 341 341 339
333 331 330 331 331 333 334 332 331 333 335 336 336 337 337 334 334 333 334 339 344 344 345 342 341 341 342 343 344 347 347 346 347 346 345 344 343 342 339 343 342 340 339
336 333 332 332 332 333 331 333 330 332 335 337 337 338 337 335 334 333 336 335 337 344 345 345 345 344 343 342 343 346 347 346 347 346 345 344 344 343 344 342 342 341 340
337 336 335 332 333 332 332 332 331 330 332 336 335 335 336 335 334 333 333 334 334 337 342 345 344 344 343 343 343 344 346 345 345 345 344 345 344 344 344 341 343 342 341
339 340 336 336 333 333 333 332 332 331 329 330 331 330 333 332 333 335 335 335 338 337 334 339 343 343 343 342 343 344 344 344 343 344 345 345 345 344 343 342 342 340 342
343 338 340 337 336 335 331 331 329 330 328 331 331 329 332 333 332 333 332 334 334 335 336 333 334 336 341 342 344 343 343 343 343 345 345 344 344 343 343 342 342 341 342
344 342 340 339 339 335 332 331 329 327 328 328 326 327 330 332 331 331 330 330 332 333 333 332 332 332 335 340 342 344 344 342 342 345 343 342 343 343 343 342 342 341 338
347 343 341 340 337 336 332 332 331 327 327 326 322 324 319 322 327 328 329 330 329 332 333 333 332 332 332 331 334 343 345 344 342 344 344 341 341 341 343 342 341 339 337
346 345 341 340 338 336 334 332 330 326 323 324 330 324 319 317 319 323 324 325 328 329 329 330 332 334 332 330 335 340 342 343 343 343 344 341 341 342 342 342 341 339 336
345 344 342 340 340 338 334 333 332 328 327 324 328 330 328 326 314 312 321 324 327 327 327 326 328 330 332 331 332 335 337 340 344 342 344 342 342 342 342 342 340 339 337
343 343 341 339 339 340 338 334 331 329 329 328 326 328 326 322 320 316 311 317 322 324 325 325 326 328 329 330 328 331 335 335 337 338 341 342 342 342 342 341 339 338 336
339 342 343 342 340 339 338 334 333 331 331 330 330 326 322 321 318 317 313 314 315 318 324 323 323 324 330 330 331 334 331 332 331 331 335 338 340 341 341 340 339 337 337
334 336 339 339 340 340 338 335 334 332 330 329 326 324 322 322 322 320 318 317 313 317 320 323 324 325 329 331 329 333 333 331 328 328 330 332 335 336 338 339 338 337 335
334 337 339 339 340 340 337 337 335 331 330 329 326 324 323 323 323 321 321 317 310 312 316 316 322 325 328 331 330 332 331 328 326 325 326 328 328 332 333 334 335 334 332
337 339 340 337 339 339 337 335 333 330 329 327 326 325 324 325 325 323 325 321 314 307 310 316 318 326 329 330 331 331 328 327 327 323 324 325 325 327 328 328 328 327 327
337 338 338 339 337 336 334 331 329 328 328 327 326 326 324 323 323 325 325 321 318 313 309 319 321 322 327 328 328 329 329 326 323 323 325 324 323 323 323 324 325 326 325
339 339 339 336 335 335 334 328 327 329 326 325 325 326 324 323 323 327 323 321 319 318 313 321 322 324 324 326 328 327 328 326 324 323 324 321 319 320 321 321 321 322 323
339 338 336 335 334 332 332 329 328 329 325 324 324 324 323 324 320 326 322 320 319 319 318 319 321 321 325 327 327 327 327 327 325 323 320 319 317 317 317 317 317 318 318
334 334 332 331 332 330 330 330 328 327 326 325 325 322 321 321 318 322 322 321 320 322 321 321 321 324 324 324 321 323 323 323 323 323 318 317 316 316 316 316 316 314 314
332 329 328 329 332 332 332 331 329 326 325 324 324 323 325 324 320 321 324 321 321 322 322 321 320 319 319 320 320 318 317 320 318 320 319 318 317 316 315 316 315 315 312
327 328 329 329 327 327 329 329 328 326 324 322 322 324 325 326 323 325 325 323 321 321 320 318 317 318 317 317 316 317 315 316 317 318 318 319 319 318 315 316 319 316 311
327 328 327 326 324 323 306 315 323 324 323 324 320 323 323 319 318 317 319 320 323 321 318 317 317 316 317 315 316 316 316 315 311 320 317 316 319 317 319 319 314 310 308
327 329 328 325 320 315 305 308 318 323 322 322 320 322 324 326 321 319 312 314 315 313 318 319 317 318 316 317 317 316 317 316 314 317 318 314 317 316 318 317 309 308 306
327 329 328 324 317 314 305 309 313 324 323 323 323 323 322 322 322 323 324 322 320 319 318 320 318 319 319 320 320 319 316 316 317 317 317 312 316 314 316 315 309 307 305
323 324 325 321 316 315 304 308 318 322 322 321 321 319 322 322 303 310 322 320 319 317 310 310 309 306 305 307 314 318 315 314 313 314 317 315 315 314 311 309 308 306 305
325 327 326 322 313 315 302 311 320 321 320 320 320 319 304 315 303 306 323 321 317 317 316 314 313 308 310 309 308 318 318 314 313 312 315 313 311 315 313 312 309 306 305

GFSMA_sfc_thetae_048.txt.gz
Theta_e
331 330 330 328 329 331 332 331 333 335 335 335 336 334 334 335 336 333 333 348 347 347 347 344 343 342 343 344 346 347 347 346 347 346 343 340 344 344 345 343 341 340 341
331 330 327 328 328 331 332 332 331 331 332 333 333 333 334 335 334 332 334 341 346 346 346 346 343 342 342 344 344 346 346 345 347 346 345 343 344 342 343 342 341 341 341
333 329 328 327 329 329 330 331 328 328 329 332 332 333 334 336 338 333 333 335 340 344 345 345 346 344 343 342 343 344 346 345 346 346 346 344 344 342 341 341 342 342 340
334 331 329 327 329 329 330 330 328 326 329 330 331 332 334 338 336 334 332 334 333 337 342 345 344 345 343 341 342 343 346 345 345 345 345 345 344 343 341 342 343 342 340
335 334 331 331 329 330 329 329 328 327 325 327 331 331 331 334 332 333 332 333 333 335 334 340 343 343 343 341 341 342 345 346 344 344 345 345 345 344 342 342 341 342 340
338 335 334 332 330 330 330 328 328 329 325 328 331 330 331 331 330 330 331 333 331 338 333 332 335 336 341 341 342 343 344 345 344 344 344 344 344 344 342 341 342 340 342
340 335 336 333 333 330 330 330 327 327 326 328 325 323 326 330 329 330 329 328 329 332 332 332 331 331 333 340 341 343 344 343 343 343 342 342 343 343 341 341 341 343 343
343 340 336 336 335 333 329 329 328 324 325 325 321 320 317 321 323 328 326 327 328 329 331 331 330 330 330 332 333 342 343 344 343 343 341 341 342 343 340 341 341 341 340
344 341 338 338 336 336 331 329 328 326 323 323 325 322 316 315 319 324 325 323 325 325 327 328 330 330 330 329 333 337 342 343 345 342 342 341 342 342 341 341 341 339 338
343 342 340 339 338 335 333 330 330 326 326 323 326 328 325 323 318 316 320 320 323 325 325 325 326 329 330 330 333 334 337 340 343 343 342 343 343 341 341 341 340 338 337
342 343 340 336 337 335 333 332 331 329 329 327 327 326 324 325 322 316 310 314 320 322 323 323 323 325 328 329 328 330 334 335 336 337 339 342 342 341 341 341 340 338 338
338 340 340 338 338 338 334 333 333 331 329 330 329 327 324 323 321 318 311 312 313 318 320 321 323 324 325 326 330 332 331 330 330 330 334 337 340 341 340 341 339 339 338
333 337 338 338 340 337 336 335 334 332 328 327 327 325 325 323 319 317 314 312 314 316 317 320 320 322 326 328 327 332 332 328 326 326 328 331 335 336 339 339 338 338 337
336 337 336 336 339 340 338 335 332 331 331 330 328 323 321 320 320 319 317 315 312 311 313 314 320 321 326 330 329 329 329 327 325 323 325 327 330 331 333 334 335 334 333
336 335 336 335 339 339 336 332 332 332 331 329 324 322 321 321 322 321 320 318 315 307 308 313 315 323 329 329 327 328 327 327 326 323 323 324 326 327 327 328 329 329 329
335 335 333 334 335 336 333 331 331 331 328 324 323 322 322 322 321 321 322 322 316 311 307 314 317 321 329 327 328 327 327 327 323 323 324 323 323 323 324 324 324 325 326
334 335 336 335 336 335 334 331 327 327 325 323 323 323 322 321 320 321 323 322 316 314 310 315 318 321 323 323 327 326 326 326 324 322 323 322 319 320 321 320 321 322 323
337 337 337 337 336 334 331 327 325 327 324 322 322 322 322 324 323 322 323 319 317 316 315 313 316 321 322 325 326 324 325 327 325 323 321 319 317 317 317 317 318 319 318
336 338 337 335 334 332 329 327 327 326 324 322 322 323 322 322 318 321 320 319 318 319 318 317 320 322 322 324 323 323 322 322 323 323 318 317 316 316 316 316 316 315 313
335 335 332 332 329 329 329 328 326 324 323 323 323 323 322 322 321 320 320 319 318 319 320 320 320 319 319 320 322 320 318 319 317 320 320 319 317 316 315 316 316 315 311
332 329 326 326 328 331 330 329 326 323 321 320 321 322 323 324 324 320 322 319 320 320 321 319 318 318 317 317 317 317 316 317 317 318 319 320 320 320 318 317 319 317 311
325 326 323 323 324 324 307 312 321 321 321 320 321 322 325 321 319 315 317 317 320 320 319 318 317 317 317 315 317 317 316 316 312 320 317 316 321 318 318 318 313 310 308
322 322 323 322 320 315 303 306 313 321 321 321 320 319 323 325 320 320 311 313 311 311 317 320 317 318 316 317 318 317 317 315 313 317 319 313 318 316 319 316 308 307 306
326 324 322 320 316 312 303 306 311 321 321 321 321 322 322 322 319 321 321 320 317 318 319 319 317 316 315 318 319 318 317 316 317 318 318 313 316 314 316 316 307 306 304
327 324 320 316 314 314 303 306 314 320 319 318 318 321 322 319 303 306 321 318 316 316 308 308 308 305 304 307 313 317 316 315 312 313 316 314 315 313 314 313 312 306 304
323 322 319 316 311 316 302 304 314 318 318 318 318 316 306 313 301 304 320 318 316 315 314 314 312 307 308 308 308 320 317 315 313 311 316 313 314 314 310 313 310 308 308

GFSMA_sfc_thetae_051.txt.gz
Theta_e
330 329 330 328 328 328 329 329 330 332 333 333 334 335 333 332 332 334 332 341 345 347 348 347 345 344 344 345 348 346 347 347 346 345 343 344 344 343 342 342 341 341 342
330 328 327 327 325 327 329 329 329 329 329 331 332 333 333 332 333 334 333 333 345 345 346 347 346 344 343 343 344 345 346 346 346 346 344 343 343 343 343 341 342 341 341
330 329 326 326 326 327 327 328 326 326 326 328 329 330 330 332 333 333 331 332 338 345 345 345 345 346 343 343 342 344 345 345 345 346 345 342 342 342 342 341 341 341 341
332 329 327 325 325 326 327 328 325 323 325 326 327 329 329 331 334 336 335 333 336 338 341 345 344 345 344 344 343 342 344 344 344 345 344 345 344 342 341 341 341 341 342
334 331 329 327 325 326 327 327 325 325 322 324 327 328 329 331 334 337 334 335 333 334 332 339 342 342 343 344 342 342 343 345 344 344 345 345 344 344 341 341 341 341 341
336 333 332 328 327 326 326 326 325 325 323 325 328 329 328 329 330 332 331 332 331 333 332 332 331 335 342 342 341 342 343 344 344 344 344 344 344 344 343 341 341 342 343
337 333 333 329 328 327 327 327 325 324 323 325 323 321 323 327 328 328 328 328 329 331 331 331 329 329 332 340 340 341 341 343 344 343 343 341 341 343 343 342 341 342 342
338 335 333 332 330 329 326 328 326 322 324 325 322 319 316 319 322 326 325 326 326 328 330 330 330 330 329 330 333 340 340 343 343 344 342 339 341 343 343 342 341 342 342
340 338 335 334 332 332 328 328 328 325 322 323 325 321 314 313 314 320 322 325 323 323 325 328 329 329 328 328 333 336 340 342 343 343 341 340 342 343 343 341 340 339 340
339 340 337 336 334 334 330 329 329 328 328 324 326 329 326 324 317 313 319 322 321 323 323 324 325 327 328 327 332 334 336 338 343 343 342 342 341 343 342 341 340 339 338
337 340 339 336 335 334 333 330 329 329 330 328 328 326 326 324 322 316 316 313 318 320 322 322 322 324 326 326 327 331 333 335 337 338 339 340 342 342 341 341 340 339 338
333 337 337 336 336 334 333 332 334 331 330 330 329 328 326 324 320 318 314 310 312 315 318 321 320 321 323 326 330 331 330 330 330 331 333 336 340 342 342 341 340 340 339
331 336 336 335 336 336 335 335 333 331 330 329 329 326 325 323 321 319 313 310 311 314 316 318 319 320 323 322 326 330 331 328 326 326 328 331 335 337 337 339 339 338 338
333 336 338 337 337 337 336 333 334 332 331 329 326 326 324 324 321 318 315 313 309 310 311 314 318 319 321 324 326 331 327 326 324 323 324 327 330 331 332 333 334 335 334
335 337 337 336 337 337 335 334 333 331 330 330 328 325 323 319 318 318 318 316 312 308 308 311 314 322 324 328 327 326 325 327 325 322 323 324 325 327 327 328 329 329 329
335 334 333 333 335 337 336 333 331 332 328 326 326 323 319 319 319 319 318 317 317 314 307 310 314 323 326 325 329 326 325 326 323 322 323 323 323 322 324 324 324 325 326
334 334 334 332 334 332 334 331 328 329 328 325 321 321 320 320 319 318 319 318 318 312 309 312 316 323 324 323 326 326 326 325 324 322 323 321 319 319 321 321 321 322 323
334 334 335 334 335 334 333 331 329 329 324 321 320 320 320 321 318 319 319 320 319 315 313 311 319 321 323 325 324 324 324 325 325 323 320 318 317 317 317 317 317 318 318
334 335 335 335 336 334 331 330 328 325 323 321 321 321 321 320 318 321 321 320 316 317 314 315 318 321 322 324 322 322 321 322 323 323 318 317 315 316 316 316 315 315 313
335 335 335 334 335 333 331 326 325 323 322 321 320 321 321 321 320 318 322 319 316 316 316 318 319 319 319 321 321 318 316 319 318 321 320 317 316 315 314 315 316 316 312
335 333 332 331 330 329 327 325 324 322 320 319 320 321 321 321 321 319 322 317 316 317 318 318 318 317 317 318 318 318 315 317 317 319 319 319 319 320 317 317 320 317 311
328 328 327 325 324 324 307 313 320 320 319 318 319 319 322 320 319 313 315 315 319 320 318 318 318 316 317 316 318 317 315 315 313 320 318 316 321 319 320 321 313 310 308
324 323 320 321 318 316 303 305 311 320 318 318 319 319 321 324 319 321 310 311 311 310 316 321 317 317 317 318 318 316 313 314 314 317 318 314 318 317 320 316 308 307 306
322 320 318 318 318 312 302 303 308 319 318 318 319 321 322 321 319 319 319 318 317 317 318 320 320 316 316 320 318 316 313 316 317 317 318 312 316 314 317 316 307 306 305
319 318 319 318 318 313 301 301 312 318 317 316 317 320 322 320 305 306 320 317 314 313 307 307 307 304 302 306 313 318 315 314 312 313 316 314 314 314 314 313 313 306 304
321 319 317 316 313 315 300 300 312 316 317 314 315 316 308 314 300 302 320 318 315 314 314 312 312 306 306 307 308 320 318 315 312 312 316 313 313 314 311 314 314 312 310

GFSMA_sfc_thetae_054.txt.gz
Theta_e
332 332 332 331 332 332 332 332 333 334 335 336 337 337 336 336 335 335 336 340 344 345 347 348 349 346 346 347 347 347 347 347 347 345 345 344 344 344 344 344 342 343 340
331 330 329 329 329 330 330 331 331 331 332 334 335 336 336 336 335 335 336 337 341 344 347 349 348 347 345 345 344 347 347 346 346 345 345 344 344 344 343 342 342 341 341
332 330 329 328 328 329 329 330 330 330 330 331 333 333 335 335 335 335 336 336 338 342 346 346 346 346 347 344 344 344 345 346 345 345 344 343 343 342 342 341 342 341 341
333 330 328 327 328 327 328 329 328 327 327 328 329 330 332 333 334 336 339 340 339 342 342 345 345 345 345 344 344 343 344 344 344 345 345 344 343 343 342 342 342 342 341
334 332 329 328 327 326 327 328 327 328 326 326 328 329 331 332 333 337 339 338 338 338 341 339 342 343 344 345 343 343 343 343 344 343 345 344 344 344 343 341 342 342 342
334 332 330 329 327 326 326 327 327 327 327 328 328 330 331 332 334 335 338 338 339 338 338 337 339 340 343 344 343 342 341 343 343 343 343 343 344 345 343 343 341 341 342
336 333 332 329 328 327 327 327 328 327 326 328 327 327 329 330 331 334 336 335 335 336 336 338 337 337 337 341 341 341 341 341 342 344 342 341 343 344 344 342 342 341 341
337 335 333 331 329 329 328 327 328 326 327 328 326 325 323 327 328 331 332 332 333 334 334 336 336 336 336 336 338 340 341 341 341 342 343 340 341 343 344 343 342 341 340
339 338 335 335 332 331 328 328 328 327 325 326 329 327 318 320 321 326 327 330 331 331 332 334 334 335 335 336 335 337 340 340 339 342 343 341 340 342 343 343 342 341 340
340 339 337 336 333 333 330 329 331 329 328 325 326 329 329 326 321 320 324 326 328 328 330 331 332 333 334 335 334 335 335 337 340 342 342 343 341 340 342 342 342 340 340
339 340 339 336 335 334 334 331 330 329 330 329 330 328 328 328 326 322 321 322 324 327 329 330 330 331 331 333 334 334 333 333 336 338 339 341 341 342 342 341 340 339 338
333 337 339 337 336 335 334 332 332 331 330 331 331 331 328 327 323 321 321 320 321 324 325 328 328 329 330 332 332 331 330 330 330 331 334 336 339 341 342 341 340 340 340
331 334 337 336 336 336 335 335 334 333 332 330 330 330 330 330 327 324 324 318 320 320 323 326 328 327 329 330 333 332 332 328 326 326 328 330 335 338 339 340 339 338 339
331 336 337 337 337 338 337 337 336 335 332 332 330 329 328 328 327 326 324 320 317 317 319 323 325 327 328 329 329 330 332 326 324 324 324 326 329 332 333 334 335 336 335
334 336 337 337 338 339 338 336 335 334 332 331 330 329 329 327 325 325 325 324 323 315 317 320 322 326 327 330 331 332 332 327 325 322 322 324 325 327 327 328 328 329 329
336 336 337 338 338 338 337 336 335 333 331 331 330 328 326 325 325 324 324 324 323 321 318 318 321 324 328 328 331 331 330 326 323 321 322 322 322 322 323 324 325 326 327
335 336 337 337 338 337 337 335 333 332 330 329 328 327 325 325 324 324 325 324 322 321 319 319 322 326 326 328 327 327 327 328 326 322 322 321 319 319 320 322 322 322 323
336 336 336 337 337 336 335 333 331 331 330 327 326 325 324 324 324 324 325 324 323 321 320 318 321 324 323 325 325 325 326 328 328 323 320 318 318 316 317 318 317 318 318
335 336 336 336 335 335 334 333 333 330 327 327 326 325 325 324 323 323 324 323 323 321 321 322 319 323 323 324 322 322 323 324 325 322 317 316 315 315 315 316 315 315 313
335 335 335 336 336 334 334 332 329 328 327 326 325 326 325 325 324 324 325 324 320 320 321 321 320 320 320 323 323 319 319 322 322 322 319 317 316 315 314 315 316 315 312
336 336 335 336 336 335 331 328 328 326 326 325 324 324 326 325 321 322 325 321 319 321 321 320 318 318 318 319 318 320 318 320 320 322 320 322 321 320 318 316 321 317 312
334 334 334 333 331 328 309 312 322 325 324 324 323 324 325 320 319 314 315 315 320 322 320 320 319 317 318 319 318 318 317 316 315 322 320 318 322 320 322 324 315 311 309
332 330 328 327 323 320 303 306 311 325 324 323 323 323 324 325 321 321 311 310 312 311 316 325 320 319 318 320 319 317 318 317 316 320 320 315 320 318 322 318 310 307 306
326 325 324 322 320 313 301 302 307 323 323 323 323 323 324 324 322 322 319 320 321 323 324 322 324 322 325 322 322 322 320 317 319 318 323 313 318 317 320 319 307 307 305
322 322 322 319 318 313 300 301 315 322 321 321 322 324 324 323 306 305 320 319 319 317 308 307 307 305 303 306 315 321 318 317 315 315 319 317 316 315 316 317 316 306 304
320 320 319 320 313 314 299 300 314 320 319 319 320 319 306 315 299 302 320 319 317 316 315 315 314 308 308 310 307 323 321 317 315 315 319 317 316 315 313 319 321 320 318

GFSMA_sfc_thetae_057.txt.gz
Theta_e
347 348 347 345 344 343 341 340 339 339 339 339 338 338 337 338 339 339 339 340 342 345 347 348 350 348 347 347 346 346 349 348 347 347 345 345 345 344 344 346 343 343 342
347 344 345 343 342 341 340 339 338 337 336 336 336 338 338 337 338 339 337 339 342 344 346 348 350 350 347 347 346 346 347 347 347 347 345 344 344 344 344 343 343 342 343
346 345 341 340 340 340 342 340 339 338 336 335 335 336 337 339 339 339 339 338 341 343 343 347 350 348 346 345 345 344 346 347 347 346 345 345 344 344 343 343 342 341 342
343 341 339 337 338 339 337 336 336 334 333 334 334 335 337 339 340 341 340 340 344 345 345 346 348 348 348 345 344 344 344 345 345 345 345 345 345 343 342 342 343 342 342
341 338 337 337 340 337 335 335 335 335 334 334 334 336 338 338 340 339 340 344 347 348 347 346 344 345 345 346 344 344 344 343 344 344 345 345 345 344 343 343 342 342 342
339 338 336 339 339 336 335 336 337 337 336 335 333 334 338 338 340 341 342 344 348 348 349 348 347 343 343 345 344 344 343 343 343 343 344 344 344 344 344 344 343 341 342
341 339 337 333 336 336 340 340 338 338 336 337 334 335 336 339 340 341 343 344 344 346 347 347 346 344 344 342 343 343 342 342 342 342 342 342 343 344 345 344 343 342 342
342 341 339 338 338 339 341 341 339 337 337 338 334 336 329 334 337 340 342 343 344 344 344 345 344 345 345 344 343 341 341 341 341 342 342 341 342 344 345 344 342 343 342
344 343 345 343 341 343 340 341 341 340 337 338 339 337 328 326 333 337 339 341 343 342 343 344 343 344 345 344 341 341 339 341 341 341 342 342 342 343 343 343 342 342 342
346 346 347 346 345 343 345 343 342 342 341 337 335 339 337 336 328 326 334 336 339 339 341 341 341 342 343 343 341 339 337 337 340 340 342 343 342 341 342 343 343 342 342
350 348 350 348 346 345 346 345 343 341 340 338 336 335 336 335 333 329 326 329 333 336 338 338 339 340 341 341 340 339 334 334 336 337 339 340 343 342 342 342 342 342 340
347 350 350 349 349 348 346 345 344 343 341 340 340 339 335 332 330 329 329 331 331 334 335 337 337 338 339 339 337 334 331 331 330 332 335 338 339 341 343 342 341 340 340
342 349 350 350 348 348 348 346 344 342 341 339 341 337 338 335 338 335 333 331 329 333 333 335 337 339 339 339 339 334 332 329 327 327 329 332 335 338 340 341 342 340 340
343 352 349 350 349 348 347 345 343 343 343 342 341 337 336 337 336 334 333 331 328 328 330 331 336 338 338 339 337 332 335 328 325 324 325 327 330 332 334 335 336 336 335
343 347 347 347 347 347 347 346 345 345 344 343 338 337 335 337 334 337 336 335 330 323 324 329 329 330 334 336 335 338 338 327 327 323 323 324 326 328 328 328 329 329 331
344 344 345 347 348 348 348 349 347 347 345 340 337 338 340 335 335 335 335 334 332 328 323 330 331 329 331 332 333 338 336 328 324 322 323 323 323 323 324 324 325 327 327
343 343 345 346 347 348 349 348 344 345 340 336 337 336 336 338 336 334 334 333 331 330 326 327 326 329 329 331 333 334 334 337 334 321 322 321 318 318 320 321 322 323 324
343 343 345 346 348 348 348 345 342 341 336 334 337 339 337 335 337 336 334 334 332 332 329 327 324 326 327 331 329 329 331 333 335 324 321 318 316 316 317 318 318 320 318
342 343 345 346 347 347 345 342 344 341 340 341 339 337 338 336 335 334 334 333 332 330 327 328 324 327 325 326 325 328 328 329 330 322 317 316 315 316 316 316 315 315 314
342 344 345 346 347 345 344 343 342 340 339 334 335 339 337 336 335 335 334 333 331 329 326 328 325 323 323 323 325 322 322 326 325 326 321 320 317 315 315 315 316 315 312
342 344 345 345 345 344 341 342 338 336 333 336 337 336 337 334 326 330 333 333 332 327 324 328 323 321 321 321 321 323 322 323 325 326 324 325 325 325 321 317 321 317 312
343 344 344 344 343 340 311 315 328 335 336 336 335 335 335 324 323 315 317 318 322 326 329 327 324 320 320 322 322 321 321 320 318 326 323 321 325 323 323 325 316 312 309
342 342 344 343 342 339 307 309 315 336 336 336 335 333 331 332 326 330 313 312 313 312 318 332 326 324 321 322 325 324 323 322 323 323 325 319 324 322 325 323 311 308 307
342 342 341 339 334 321 303 303 310 337 336 335 335 334 332 331 330 328 326 325 325 329 330 330 332 328 327 327 323 323 325 321 323 322 326 318 321 319 324 323 308 308 305
337 337 334 330 322 315 301 303 321 334 332 332 332 332 332 331 308 306 323 322 325 324 309 308 311 309 305 308 317 325 322 323 318 319 324 323 321 318 321 322 322 308 305
332 326 326 330 319 321 299 302 320 330 328 326 327 328 306 323 299 301 323 321 320 322 323 323 323 314 316 316 308 331 326 321 319 319 325 323 320 321 317 322 328 326 325

GFSMA_sfc_thetae_060.txt.gz
Theta_e
350 350 349 346 345 344 342 343 340 340 340 341 339 337 336 337 337 336 336 346 344 344 347 349 349 350 350 349 348 347 348 349 348 348 347 345 345 345 345 345 344 343 344
350 347 348 347 345 344 341 341 340 339 339 338 338 339 338 338 337 339 336 338 344 344 346 348 350 350 350 348 349 347 347 349 348 347 347 346 345 345 345 344 344 342 343
353 353 345 345 343 346 347 344 343 341 339 338 338 337 339 340 339 340 340 339 339 343 345 346 348 351 350 347 349 346 346 347 348 348 347 346 345 345 344 345 345 344 343
352 352 344 343 342 343 342 341 340 339 339 339 339 339 340 341 342 344 343 343 339 338 345 347 348 350 350 348 347 346 347 346 346 346 346 346 345 345 344 345 343 344 342
349 348 343 342 347 340 340 340 340 342 342 341 340 341 342 342 344 343 344 344 342 346 346 348 348 347 348 347 347 347 346 345 345 345 345 345 346 346 344 344 342 343 340
346 348 342 343 342 339 339 340 346 345 344 343 341 341 342 344 345 344 345 342 345 349 350 351 350 346 345 346 346 347 345 346 345 344 344 344 345 345 344 344 343 343 342
347 349 341 342 344 344 344 344 346 346 344 345 342 342 343 346 347 344 345 344 346 348 350 352 352 346 344 345 345 345 345 346 345 345 343 343 343 345 344 344 344 344 343
346 346 349 345 347 336 346 349 349 344 345 346 340 340 336 340 343 344 344 344 346 346 346 349 349 347 347 346 346 343 344 343 344 344 342 341 343 343 344 345 344 344 343
345 348 349 347 346 344 342 352 350 350 343 344 347 341 334 331 338 342 344 344 347 347 346 347 348 348 349 348 343 344 342 341 342 343 343 341 342 343 344 345 344 343 343
349 350 351 349 351 349 354 352 351 349 349 344 344 345 348 343 333 330 339 343 345 345 346 342 344 346 347 345 346 343 339 339 340 342 343 342 343 342 343 344 344 343 342
353 350 353 354 355 352 356 357 353 351 349 345 344 343 344 342 341 334 329 333 338 340 342 343 341 341 344 344 343 342 336 335 336 339 340 342 343 343 343 344 343 343 341
353 354 352 357 357 356 355 354 355 353 352 350 347 346 342 338 337 335 332 333 333 342 339 341 341 340 340 340 342 335 334 333 332 333 335 338 340 343 343 343 341 342 342
346 356 358 358 355 358 357 357 354 353 351 348 350 346 346 343 342 339 334 331 333 343 338 339 338 340 340 340 340 335 334 330 329 328 330 333 336 338 340 341 342 342 341
344 356 356 356 357 357 357 356 352 350 351 349 350 350 346 344 341 338 336 333 332 336 333 336 339 338 339 339 337 334 339 330 327 325 326 328 331 333 335 336 338 338 337
344 351 353 355 355 356 355 355 349 350 351 351 350 350 346 344 341 340 339 337 333 326 329 335 332 340 340 340 337 339 340 327 328 325 324 325 327 329 330 330 331 331 331
349 348 350 353 354 355 353 353 350 353 352 351 350 349 347 342 342 342 339 338 335 331 325 332 332 337 339 337 337 339 338 330 327 325 324 324 324 324 324 324 325 326 328
349 346 348 351 352 351 352 353 355 354 352 351 349 348 346 347 342 339 340 337 337 334 328 333 336 335 335 334 334 336 339 337 335 322 323 322 320 320 320 321 322 323 325
348 348 349 349 348 348 353 353 353 351 349 347 346 345 343 342 344 343 340 341 337 337 331 331 331 331 332 334 333 336 335 338 338 324 322 318 317 316 317 317 318 319 320
346 348 348 347 346 347 351 353 352 348 347 346 345 344 343 342 341 340 340 337 336 336 336 333 328 330 330 334 328 333 333 333 335 323 318 316 315 316 315 316 317 316 314
344 347 348 346 346 348 350 352 350 348 346 345 345 345 343 342 341 341 339 338 337 335 333 330 330 326 328 327 328 326 327 329 328 330 323 322 318 315 314 316 317 316 313
342 345 346 346 348 349 348 350 348 347 345 344 344 342 343 338 330 333 336 338 337 334 330 331 326 326 324 322 322 325 326 327 328 330 329 330 329 328 323 317 321 317 312
342 344 345 345 348 346 314 318 337 345 343 342 338 340 340 329 327 318 318 318 330 336 332 327 329 325 323 325 324 325 324 323 321 330 327 324 331 329 327 330 317 312 310
347 346 346 347 347 347 311 313 318 341 340 339 338 339 337 336 332 336 315 314 315 313 318 334 332 329 326 327 329 327 323 324 326 328 329 321 326 325 328 325 311 308 308
349 349 348 348 345 338 308 308 313 340 339 339 340 339 338 336 335 333 332 330 330 326 328 334 335 334 332 333 330 331 330 328 330 330 331 321 323 324 327 327 310 308 306
343 343 344 345 346 330 303 306 321 338 337 338 337 337 335 335 311 309 330 329 326 326 313 307 309 308 307 310 321 328 325 323 322 324 329 327 326 321 324 323 321 309 309
341 341 342 343 326 330 301 305 319 333 335 333 333 333 309 324 301 303 330 325 323 325 329 329 326 318 318 318 310 327 328 323 322 319 328 326 324 322 319 326 324 319 321

GFSMA_sfc_thetae_063.txt.gz
Theta_e
358 354 354 347 348 345 344 345 342 344 342 342 340 339 338 337 338 337 339 350 348 348 347 348 350 350 352 352 350 349 347 349 349 349 349 347 346 346 347 346 345 344 340
358 350 352 347 346 344 343 344 345 343 342 341 341 341 341 339 340 343 338 341 346 346 346 346 350 351 351 352 351 349 347 348 349 348 348 347 346 345 346 346 345 344 343
360 357 348 347 346 349 358 352 349 345 341 341 344 341 340 344 341 343 341 342 341 345 345 347 349 351 352 352 350 349 347 347 348 348 347 347 346 345 345 345 345 344 344
359 358 347 346 346 348 344 344 344 341 340 341 346 343 343 345 346 348 345 345 343 342 344 346 348 350 352 351 350 349 348 346 347 347 347 347 346 345 345 345 345 345 343
356 355 349 347 356 346 344 345 342 345 343 344 343 345 346 344 348 345 348 348 348 346 341 345 347 349 350 351 350 349 348 347 345 346 346 346 346 346 345 345 344 344 343
353 355 348 350 350 343 343 342 349 346 344 346 344 344 348 346 350 350 350 347 347 344 347 350 348 346 347 348 348 347 348 348 346 345 344 344 345 346 345 345 344 343 343
348 351 346 349 348 345 342 352 347 344 344 350 345 343 346 351 350 347 350 349 347 345 350 352 350 348 349 346 346 346 347 349 347 346 343 342 343 345 345 345 344 344 343
351 351 347 349 349 342 350 348 348 343 345 349 343 340 334 339 347 349 348 348 349 347 350 350 350 351 343 342 346 344 346 347 347 345 344 341 342 344 344 344 344 344 344
350 350 349 347 350 347 345 347 347 352 339 348 354 341 331 328 336 347 348 345 351 347 348 348 349 346 346 347 344 346 344 343 344 345 343 342 342 343 344 344 344 344 344
349 347 349 346 347 347 348 349 352 352 354 345 347 348 350 346 336 331 342 347 347 349 353 346 346 344 349 349 348 346 343 341 342 344 343 344 344 343 344 344 344 344 344
350 347 344 345 347 351 353 355 358 361 352 349 347 344 347 343 348 339 333 336 341 342 346 345 344 344 346 345 343 343 337 338 339 339 341 343 343 343 343 345 344 344 343
352 350 350 353 355 353 355 360 356 360 357 355 351 347 343 340 338 339 335 338 337 340 341 343 340 340 348 341 343 339 338 335 333 333 335 339 341 341 343 344 343 342 341
352 358 358 357 355 359 361 360 360 362 360 354 359 346 347 343 343 341 338 334 332 342 339 342 341 342 342 342 341 339 336 332 330 329 330 333 335 337 341 342 343 342 341
344 364 363 358 359 361 362 357 358 358 360 356 357 354 347 346 347 345 339 335 332 339 340 342 339 339 341 343 338 334 338 330 328 326 326 328 332 334 335 337 338 339 339
341 348 360 360 359 359 362 363 357 360 358 357 355 357 351 349 349 347 343 340 334 329 335 339 339 343 341 342 338 341 340 329 330 326 325 326 328 329 330 331 331 332 332
352 349 352 356 358 359 362 363 358 357 354 352 350 352 352 351 350 345 342 340 338 335 328 333 340 342 340 337 336 339 340 329 329 327 326 325 324 325 326 326 326 327 328
348 348 349 349 351 354 360 360 357 354 352 355 355 352 351 354 345 343 342 339 338 336 328 332 337 339 338 336 337 337 340 339 334 323 324 324 321 322 322 321 321 323 325
347 348 347 345 347 352 356 356 353 349 352 352 351 351 348 346 349 350 341 344 340 341 332 332 336 333 334 337 337 336 339 340 339 324 323 320 317 316 316 316 318 319 319
343 344 346 347 347 352 355 354 351 351 353 353 352 348 346 347 344 344 343 340 337 338 336 333 335 332 332 334 333 334 336 337 334 324 320 317 316 315 315 316 316 315 313
339 342 347 346 349 349 350 350 352 354 353 351 352 349 345 346 346 345 342 342 341 335 335 336 334 331 329 332 332 329 329 332 331 332 324 323 318 315 313 316 317 315 313
339 338 344 347 351 352 348 352 353 354 353 349 348 345 347 341 332 337 343 342 342 335 336 335 333 331 328 327 327 330 330 328 330 331 330 330 330 328 320 317 322 318 313
341 342 344 347 350 346 320 321 344 353 349 347 346 344 344 333 329 321 321 320 330 338 336 333 335 330 326 326 328 327 327 326 322 333 327 326 333 330 328 330 317 312 309
346 347 347 350 351 353 312 313 320 350 347 347 345 343 341 339 334 338 319 317 317 318 320 337 333 328 330 330 330 329 327 329 331 329 329 323 329 327 330 324 311 308 307
346 348 349 353 353 347 308 311 316 348 346 343 342 341 341 341 337 335 336 333 333 332 332 335 333 329 336 334 335 335 332 329 332 329 335 321 325 325 327 327 309 307 306
344 348 351 352 351 336 306 311 325 344 340 339 339 340 338 337 315 311 334 332 331 331 313 309 310 310 309 311 323 332 326 325 324 328 331 329 326 323 327 326 322 309 306
344 346 346 349 333 338 304 309 322 337 338 335 338 336 310 325 303 306 334 332 329 329 324 328 328 319 321 319 311 336 332 324 325 322 330 327 325 325 321 326 326 320 315